contact:dominique.lefevre@mio.osupytheas.fr, maurice.libes@osupytheas.fr, didier.mallarino@osupytheas.fr
Project:EMSO http://www.emso-fr.org/EMSO-France
Depth: 2436.0 m
Title:EMSO Ligure Ouest : Data MII capteur AQUADOPP
Date,Latitude,Longitude,X_East,Y_North,Z_Up,Amplitude_X,Amplitude_Y,Amplitude_Z,Batterie,SoundSpeed,Heading,Pitch,Roll,Pressure,TIS,Speed,Direction
, degrees North, degrees East, m.s-1, m.s-1,m.s-1, 1, 1, 1, Volt, m.s-1, degree, degree, degree, dbar, degree_C, m.s-1, degree
2022-11-11T00:04:03,42.805,6.029,-0.012,-0.03,0.006,100.0,101.0,100.0,13.4,1505.2,324.7,-0.7,1.9,2471.218,13.28,0.032,201.8
2022-11-11T00:07:03,42.805,6.029,0.004,-0.045,-0.01,101.0,101.0,100.0,13.3,1505.2,331.4,-0.8,1.8,2471.225,13.28,0.045,174.9
2022-11-11T00:10:03,42.805,6.029,0.016,-0.018,0.011,101.0,101.0,100.0,13.3,1505.2,329.7,-0.8,1.8,2471.158,13.28,0.024,138.4
2022-11-11T00:13:03,42.805,6.029,-0.009,-0.023,0.005,101.0,102.0,100.0,13.4,1505.2,329.2,-0.7,1.8,2471.182,13.28,0.024,201.4
2022-11-11T00:16:03,42.805,6.029,0.014,-0.033,-0.003,101.0,101.0,100.0,13.3,1505.2,325.5,-0.7,1.8,2471.144,13.28,0.035,157.0
2022-11-11T00:19:03,42.805,6.029,0.01,-0.039,-0.01,102.0,100.0,101.0,13.4,1505.2,322.5,-0.8,1.8,2471.151,13.28,0.04,165.6
2022-11-11T00:22:03,42.805,6.029,-0.007,-0.035,-0.015,99.0,101.0,101.0,13.4,1505.2,320.6,-0.7,1.8,2471.175,13.28,0.035,191.3
2022-11-11T00:25:03,42.805,6.029,0.016,-0.052,-0.018,103.0,101.0,100.0,13.4,1505.2,316.3,-0.8,1.8,2471.163,13.28,0.054,162.9
2022-11-11T00:28:03,42.805,6.029,-0.001,-0.029,-0.041,100.0,101.0,101.0,13.4,1505.2,323.1,-0.8,1.8,2471.149,13.28,0.029,182.0
2022-11-11T00:31:03,42.805,6.029,0.018,-0.047,-0.034,100.0,100.0,101.0,13.4,1505.2,319.3,-0.7,1.8,2471.13,13.28,0.05,159.0
2022-11-11T00:34:03,42.805,6.029,0.029,-0.063,-0.026,100.0,102.0,101.0,13.3,1505.2,334.4,-0.8,1.8,2471.142,13.28,0.069,155.3
2022-11-11T00:37:03,42.805,6.029,0.004,-0.061,-0.035,101.0,101.0,101.0,13.3,1505.2,320.1,-0.8,1.8,2471.135,13.28,0.061,176.3
2022-11-11T00:40:03,42.805,6.029,0.01,-0.027,-0.052,101.0,101.0,100.0,13.3,1505.2,325.4,-0.7,1.8,2471.139,13.28,0.028,159.7
2022-11-11T00:43:03,42.805,6.029,0.002,-0.039,-0.027,101.0,102.0,101.0,13.3,1505.2,329.8,-0.7,1.8,2471.157,13.28,0.039,177.1
2022-11-11T00:46:03,42.805,6.029,0.02,-0.053,-0.037,101.0,102.0,100.0,13.4,1505.2,335.4,-0.8,1.8,2471.138,13.28,0.056,159.3
2022-11-11T00:49:03,42.805,6.029,0.028,-0.028,0.002,101.0,101.0,101.0,13.4,1505.2,326.6,-0.7,1.8,2471.162,13.28,0.039,135.0
2022-11-11T00:52:03,42.805,6.029,0.011,-0.051,-0.026,102.0,99.0,101.0,13.4,1505.2,320.2,-0.7,1.8,2471.161,13.28,0.052,167.8
2022-11-11T00:55:03,42.805,6.029,0.024,-0.023,-0.022,102.0,101.0,100.0,13.3,1505.2,322.1,-0.7,1.8,2471.162,13.29,0.033,133.8
2022-11-11T00:58:03,42.805,6.029,-0.002,-0.03,-0.001,102.0,102.0,100.0,13.4,1505.2,332.8,-0.8,1.8,2471.13,13.28,0.03,183.8
2022-11-11T01:04:03,42.805,6.029,-0.015,-0.029,-0.033,103.0,103.0,102.0,13.4,1505.2,329.5,-0.8,1.8,2471.198,13.28,0.032,207.4
2022-11-11T01:07:03,42.805,6.029,0.014,-0.05,-0.03,101.0,102.0,100.0,13.3,1505.2,330.3,-0.8,1.8,2471.197,13.28,0.051,164.4
2022-11-11T01:10:03,42.805,6.029,0.024,-0.039,0.015,102.0,99.0,100.0,13.4,1505.2,328.4,-0.8,1.8,2471.158,13.28,0.045,148.4
2022-11-11T01:13:03,42.805,6.029,0.02,-0.039,-0.001,101.0,101.0,101.0,13.3,1505.2,321.7,-0.8,1.8,2471.166,13.28,0.043,152.9
2022-11-11T01:16:03,42.805,6.029,0.023,-0.034,-0.013,101.0,101.0,100.0,13.4,1505.2,323.7,-0.8,1.8,2471.122,13.28,0.041,145.9
2022-11-11T01:19:03,42.805,6.029,0.003,-0.018,-0.006,102.0,102.0,100.0,13.4,1505.2,324.7,-0.8,1.9,2471.095,13.28,0.018,170.5
2022-11-11T01:22:03,42.805,6.029,0.009,-0.035,-0.024,102.0,101.0,100.0,13.4,1505.2,320.1,-0.8,1.8,2471.129,13.28,0.036,165.6
2022-11-11T01:25:03,42.805,6.029,0.021,-0.043,0.003,101.0,102.0,101.0,13.3,1505.2,335.1,-0.7,1.9,2471.162,13.28,0.047,154.0
2022-11-11T01:28:03,42.805,6.029,0.026,-0.039,0.0,102.0,102.0,100.0,13.4,1505.2,325.9,-0.7,1.8,2471.152,13.28,0.046,146.3
2022-11-11T01:31:03,42.805,6.029,0.002,-0.053,-0.027,101.0,101.0,101.0,13.3,1505.2,329.0,-0.8,1.8,2471.11,13.28,0.053,177.8
2022-11-11T01:34:03,42.805,6.029,0.016,-0.041,-0.023,101.0,101.0,100.0,13.4,1505.2,323.1,-0.8,1.8,2471.106,13.28,0.044,158.7
2022-11-11T01:37:03,42.805,6.029,0.028,-0.044,-0.008,101.0,103.0,100.0,13.4,1505.2,316.3,-0.8,1.8,2471.125,13.28,0.052,147.5
2022-11-11T01:40:03,42.805,6.029,0.015,-0.037,-0.023,101.0,101.0,100.0,13.4,1505.2,320.7,-0.8,1.8,2471.118,13.28,0.039,157.9
2022-11-11T01:43:03,42.805,6.029,0.014,-0.028,-0.016,102.0,101.0,101.0,13.3,1505.2,317.2,-0.8,1.8,2471.132,13.28,0.031,153.4
2022-11-11T01:46:03,42.805,6.029,0.041,-0.046,0.007,100.0,101.0,101.0,13.4,1505.2,323.8,-0.8,1.8,2471.16,13.28,0.061,138.3
2022-11-11T01:49:03,42.805,6.029,0.033,-0.045,-0.008,102.0,101.0,100.0,13.4,1505.2,330.0,-0.8,1.8,2471.156,13.28,0.055,143.7
2022-11-11T01:52:03,42.805,6.029,0.018,-0.042,-0.011,101.0,101.0,101.0,13.4,1505.2,332.2,-0.7,1.8,2471.151,13.28,0.045,156.8
2022-11-11T01:55:03,42.805,6.029,0.01,-0.048,-0.033,101.0,101.0,100.0,13.4,1505.2,329.1,-0.8,1.8,2471.113,13.28,0.049,168.2
2022-11-11T01:58:03,42.805,6.029,0.019,-0.053,-0.014,101.0,101.0,101.0,13.4,1505.2,327.1,-0.8,1.8,2471.111,13.28,0.056,160.3
2022-11-11T02:04:03,42.805,6.029,0.034,-0.048,-0.025,101.0,100.0,101.0,13.4,1505.2,322.8,-0.8,1.8,2471.153,13.28,0.058,144.7
2022-11-11T02:07:03,42.805,6.029,0.023,-0.053,-0.052,101.0,100.0,101.0,13.4,1505.2,322.0,-0.8,1.8,2471.152,13.28,0.057,156.5
2022-11-11T02:10:03,42.805,6.029,-0.006,-0.045,-0.009,102.0,102.0,100.0,13.4,1505.2,334.1,-0.8,1.8,2471.203,13.28,0.045,187.6
2022-11-11T02:13:03,42.805,6.029,-0.001,-0.023,-0.003,100.0,102.0,101.0,13.4,1505.2,333.0,-0.8,1.8,2471.157,13.28,0.023,182.5
2022-11-11T02:16:03,42.805,6.029,0.004,-0.038,-0.022,102.0,100.0,101.0,13.4,1505.2,334.1,-0.8,1.8,2471.144,13.28,0.038,174.0
2022-11-11T02:19:03,42.805,6.029,0.028,-0.038,0.008,100.0,100.0,102.0,13.3,1505.2,322.9,-0.8,1.8,2471.149,13.28,0.047,143.6
2022-11-11T02:22:03,42.805,6.029,0.034,-0.046,-0.006,101.0,102.0,101.0,13.4,1505.2,320.5,-0.8,1.8,2471.145,13.28,0.057,143.5
2022-11-11T02:25:03,42.805,6.029,0.026,-0.056,0.006,101.0,101.0,100.0,13.4,1505.2,329.1,-0.8,1.8,2471.098,13.28,0.061,155.1
2022-11-11T02:28:03,42.805,6.029,0.007,-0.043,-0.017,101.0,101.0,101.0,13.4,1505.2,328.3,-0.8,1.8,2471.119,13.28,0.043,170.8
2022-11-11T02:31:03,42.805,6.029,0.036,-0.042,-0.015,102.0,101.0,100.0,13.4,1505.2,334.4,-0.7,1.8,2471.055,13.28,0.055,139.4
2022-11-11T02:34:03,42.805,6.029,0.012,-0.06,-0.024,102.0,100.0,101.0,13.4,1505.2,322.6,-0.7,1.8,2471.068,13.28,0.061,168.7
2022-11-11T02:37:03,42.805,6.029,0.024,-0.044,-0.003,103.0,100.0,100.0,13.4,1505.2,324.5,-0.8,1.8,2471.086,13.28,0.05,151.4
2022-11-11T02:40:03,42.805,6.029,0.006,-0.057,-0.051,100.0,103.0,101.0,13.4,1505.2,333.0,-0.8,1.8,2471.105,13.28,0.057,174.0
2022-11-11T02:43:03,42.805,6.029,0.029,-0.05,-0.023,101.0,101.0,100.0,13.4,1505.2,321.2,-0.7,1.8,2471.071,13.28,0.057,149.9
2022-11-11T02:46:03,42.805,6.029,0.022,-0.057,-0.037,101.0,102.0,101.0,13.4,1505.2,329.4,-0.8,1.8,2471.115,13.28,0.061,158.9
2022-11-11T02:49:03,42.805,6.029,0.014,-0.05,-0.043,101.0,101.0,100.0,13.4,1505.2,327.9,-0.8,1.8,2471.085,13.28,0.051,164.4
2022-11-11T02:52:03,42.805,6.029,0.002,-0.047,-0.035,101.0,101.0,100.0,13.4,1505.2,330.2,-0.8,1.8,2471.08,13.28,0.047,177.6
2022-11-11T02:55:03,42.805,6.029,0.015,-0.05,-0.02,102.0,101.0,101.0,13.4,1505.2,327.3,-0.8,1.8,2471.071,13.28,0.052,163.3
2022-11-11T02:58:03,42.805,6.029,0.043,-0.055,-0.013,101.0,101.0,101.0,13.3,1505.2,324.2,-0.7,1.8,2471.082,13.28,0.069,142.0
2022-11-11T03:04:03,42.805,6.029,0.023,-0.04,0.0,101.0,100.0,101.0,13.3,1505.2,330.9,-0.8,1.8,2471.108,13.28,0.046,150.1
2022-11-11T03:07:03,42.805,6.029,0.024,-0.053,-0.029,101.0,101.0,100.0,13.4,1505.2,327.9,-0.8,1.8,2471.109,13.28,0.058,155.6
2022-11-11T03:10:03,42.805,6.029,0.052,-0.044,0.0,103.0,102.0,99.0,13.3,1505.2,333.7,-0.8,1.8,2471.104,13.28,0.068,130.2
2022-11-11T03:13:03,42.805,6.029,0.004,-0.036,-0.004,102.0,101.0,100.0,13.3,1505.2,329.3,-0.8,1.8,2471.071,13.28,0.036,173.7
2022-11-11T03:16:03,42.805,6.029,0.023,-0.06,-0.002,101.0,102.0,101.0,13.3,1505.2,329.9,-0.7,1.8,2471.083,13.28,0.064,159.0
2022-11-11T03:19:03,42.805,6.029,0.016,-0.056,-0.037,100.0,102.0,101.0,13.3,1505.2,330.9,-0.8,1.8,2471.056,13.28,0.058,164.1
2022-11-11T03:22:03,42.805,6.029,0.013,-0.035,0.006,101.0,101.0,100.0,13.4,1505.2,327.1,-0.8,1.8,2471.062,13.28,0.037,159.6
2022-11-11T03:25:03,42.805,6.029,0.023,-0.048,-0.016,103.0,100.0,101.0,13.4,1505.2,328.2,-0.8,1.8,2471.063,13.28,0.053,154.4
2022-11-11T03:28:03,42.805,6.029,0.028,-0.054,-0.012,101.0,101.0,100.0,13.4,1505.2,335.8,-0.8,1.8,2471.062,13.28,0.06,152.6
2022-11-11T03:31:03,42.805,6.029,0.023,-0.034,0.004,103.0,100.0,101.0,13.4,1505.2,323.7,-0.8,1.8,2471.082,13.28,0.041,145.9
2022-11-11T03:34:03,42.805,6.029,0.03,-0.036,-0.005,100.0,101.0,102.0,13.4,1505.2,324.8,-0.8,1.8,2471.035,13.28,0.046,140.2
2022-11-11T03:37:03,42.805,6.029,0.028,-0.029,0.023,102.0,101.0,100.0,13.4,1505.2,319.6,-0.7,1.8,2471.08,13.28,0.04,136.0
2022-11-11T03:40:03,42.805,6.029,0.027,-0.024,0.007,101.0,102.0,102.0,13.4,1505.2,317.2,-0.8,1.8,2471.057,13.28,0.036,131.6
2022-11-11T03:43:03,42.805,6.029,0.011,-0.037,-0.001,101.0,103.0,100.0,13.4,1505.2,324.4,-0.8,1.8,2471.087,13.28,0.038,163.4
2022-11-11T03:46:03,42.805,6.029,0.007,-0.036,-0.019,102.0,101.0,101.0,13.3,1505.2,330.4,-0.8,1.8,2471.055,13.28,0.036,169.0
2022-11-11T03:49:03,42.805,6.029,-0.004,-0.029,-0.037,103.0,100.0,101.0,13.4,1505.2,333.4,-0.8,1.8,2471.038,13.28,0.029,187.8
2022-11-11T03:52:03,42.805,6.029,0.028,-0.03,-0.006,102.0,102.0,100.0,13.4,1505.2,320.8,-0.7,1.8,2471.065,13.28,0.041,137.0
2022-11-11T03:55:03,42.805,6.029,0.042,-0.045,0.0,102.0,102.0,101.0,13.4,1505.2,329.7,-0.8,1.8,2471.084,13.28,0.061,137.0
2022-11-11T03:58:03,42.805,6.029,0.023,-0.038,0.0,103.0,103.0,100.0,13.4,1505.2,326.6,-0.8,1.8,2471.023,13.28,0.044,148.8
2022-11-11T04:04:03,42.805,6.029,0.028,-0.058,-0.015,103.0,102.0,100.0,13.4,1505.2,329.4,-0.8,1.8,2471.108,13.28,0.064,154.2
2022-11-11T04:07:03,42.805,6.029,0.028,-0.032,-0.015,102.0,102.0,101.0,13.4,1505.2,327.7,-0.8,1.8,2471.089,13.28,0.042,138.8
2022-11-11T04:10:03,42.805,6.029,0.017,-0.04,0.002,102.0,102.0,102.0,13.4,1505.2,326.4,-0.8,1.8,2471.113,13.28,0.043,157.0
2022-11-11T04:13:03,42.805,6.029,0.055,-0.048,-0.006,102.0,101.0,101.0,13.4,1505.2,321.7,-0.7,1.8,2471.122,13.28,0.072,131.1
2022-11-11T04:16:03,42.805,6.029,0.021,-0.057,-0.021,102.0,102.0,102.0,13.4,1505.2,335.7,-0.7,1.9,2471.095,13.28,0.06,159.8
2022-11-11T04:19:03,42.805,6.029,0.025,-0.054,-0.006,103.0,101.0,100.0,13.4,1505.2,317.8,-0.8,1.8,2471.063,13.28,0.059,155.2
2022-11-11T04:22:03,42.805,6.029,0.038,-0.043,0.006,102.0,102.0,101.0,13.3,1505.2,322.4,-0.8,1.8,2471.085,13.28,0.057,138.5
2022-11-11T04:25:03,42.805,6.029,0.005,-0.048,-0.012,102.0,102.0,100.0,13.3,1505.2,328.3,-0.8,1.8,2471.072,13.28,0.048,174.1
2022-11-11T04:28:03,42.805,6.029,0.024,-0.023,0.024,103.0,101.0,101.0,13.4,1505.2,321.0,-0.7,1.8,2471.081,13.28,0.033,133.8
2022-11-11T04:31:03,42.805,6.029,0.026,-0.052,-0.007,102.0,102.0,101.0,13.4,1505.2,321.7,-0.8,1.8,2471.088,13.28,0.058,153.4
2022-11-11T04:34:03,42.805,6.029,0.036,-0.047,-0.025,103.0,102.0,101.0,13.4,1505.2,321.0,-0.7,1.8,2471.106,13.28,0.059,142.5
2022-11-11T04:37:03,42.805,6.029,0.038,-0.059,-0.02,102.0,102.0,101.0,13.4,1505.2,319.6,-0.7,1.8,2471.121,13.28,0.07,147.2
2022-11-11T04:40:03,42.805,6.029,0.019,-0.046,-0.018,103.0,101.0,101.0,13.4,1505.2,329.4,-0.8,1.8,2471.111,13.28,0.049,157.6
2022-11-11T04:43:03,42.805,6.029,0.036,-0.044,-0.021,101.0,103.0,101.0,13.3,1505.2,328.1,-0.8,1.8,2471.078,13.28,0.056,140.7
2022-11-11T04:46:03,42.805,6.029,0.023,-0.042,-0.019,102.0,102.0,101.0,13.4,1505.2,331.1,-0.8,1.8,2471.098,13.28,0.047,151.3
2022-11-11T04:49:03,42.805,6.029,0.039,-0.048,-0.049,102.0,103.0,100.0,13.4,1505.2,320.8,-0.8,1.8,2471.088,13.28,0.061,140.9
2022-11-11T04:52:03,42.805,6.029,0.006,-0.046,-0.04,103.0,102.0,101.0,13.4,1505.2,328.3,-0.8,1.8,2471.073,13.28,0.046,172.6
2022-11-11T04:55:03,42.805,6.029,-0.001,-0.05,-0.018,102.0,101.0,101.0,13.3,1505.2,332.4,-0.8,1.8,2471.117,13.28,0.05,181.1
2022-11-11T04:58:03,42.805,6.029,0.037,-0.051,-0.017,102.0,103.0,101.0,13.4,1505.2,325.5,-0.7,1.8,2471.121,13.28,0.063,144.0
2022-11-11T05:04:03,42.805,6.029,0.027,-0.056,-0.015,102.0,102.0,101.0,13.4,1505.2,321.1,-0.8,1.8,2471.15,13.28,0.062,154.3
2022-11-11T05:07:03,42.805,6.029,0.031,-0.04,-0.027,102.0,101.0,100.0,13.3,1505.2,318.5,-0.8,1.8,2471.151,13.28,0.05,142.2
2022-11-11T05:10:03,42.805,6.029,0.011,-0.036,0.011,102.0,102.0,101.0,13.4,1505.2,329.7,-0.7,1.8,2471.181,13.28,0.037,163.0
2022-11-11T05:13:03,42.805,6.029,0.024,-0.036,0.01,102.0,101.0,101.0,13.4,1505.2,322.9,-0.7,1.8,2471.119,13.28,0.043,146.3
2022-11-11T05:16:03,42.805,6.029,0.036,-0.033,0.008,102.0,101.0,101.0,13.4,1505.2,329.2,-0.7,1.8,2471.09,13.28,0.048,132.5
2022-11-11T05:19:03,42.805,6.029,0.003,-0.047,-0.009,102.0,102.0,101.0,13.3,1505.2,333.4,-0.8,1.8,2471.155,13.28,0.047,176.4
2022-11-11T05:22:03,42.805,6.029,0.004,-0.027,-0.014,101.0,102.0,101.0,13.4,1505.2,318.1,-0.8,1.8,2471.139,13.28,0.027,171.6
2022-11-11T05:25:03,42.805,6.029,0.007,-0.031,-0.021,102.0,101.0,101.0,13.4,1505.2,321.0,-0.7,1.8,2471.133,13.28,0.031,167.3
2022-11-11T05:28:03,42.805,6.029,0.02,-0.051,-0.028,103.0,101.0,100.0,13.4,1505.2,323.8,-0.7,1.8,2471.123,13.28,0.054,158.6
2022-11-11T05:31:03,42.805,6.029,0.029,-0.045,0.003,101.0,101.0,101.0,13.4,1505.2,332.1,-0.8,1.8,2471.137,13.28,0.053,147.2
2022-11-11T05:34:03,42.805,6.029,0.017,-0.047,-0.025,101.0,102.0,100.0,13.4,1505.2,326.9,-0.8,1.8,2471.156,13.28,0.049,160.1
2022-11-11T05:37:03,42.805,6.029,0.03,-0.05,-0.028,102.0,102.0,100.0,13.3,1505.2,326.3,-0.7,1.8,2471.14,13.28,0.058,149.0
2022-11-11T05:40:03,42.805,6.029,0.033,-0.035,0.016,102.0,102.0,100.0,13.4,1505.2,323.4,-0.7,1.8,2471.127,13.28,0.048,136.7
2022-11-11T05:43:03,42.805,6.029,0.017,-0.053,-0.01,102.0,102.0,100.0,13.4,1505.2,334.3,-0.8,1.8,2471.168,13.28,0.055,162.2
2022-11-11T05:46:03,42.805,6.029,0.033,-0.049,0.008,102.0,101.0,101.0,13.4,1505.2,324.1,-0.7,1.8,2471.102,13.28,0.059,146.0
2022-11-11T05:49:03,42.805,6.029,0.029,-0.028,-0.006,102.0,102.0,101.0,13.4,1505.2,325.0,-0.8,1.8,2471.124,13.28,0.04,134.0
2022-11-11T05:52:03,42.805,6.029,0.043,-0.046,0.008,102.0,102.0,100.0,13.4,1505.2,321.5,-0.7,1.8,2471.156,13.29,0.062,136.9
2022-11-11T05:55:03,42.805,6.029,0.017,-0.043,-0.025,102.0,101.0,101.0,13.3,1505.2,330.4,-0.8,1.8,2471.142,13.28,0.046,158.4
2022-11-11T05:58:03,42.805,6.029,0.041,-0.063,-0.028,102.0,101.0,101.0,13.4,1505.2,326.3,-0.8,1.8,2471.128,13.28,0.075,146.9
2022-11-11T06:04:03,42.805,6.029,0.026,-0.056,-0.016,102.0,102.0,101.0,13.4,1505.2,320.0,-0.8,1.8,2471.193,13.28,0.061,155.1
2022-11-11T06:07:03,42.805,6.029,0.011,-0.044,-0.057,103.0,102.0,101.0,13.3,1505.2,324.3,-0.8,1.8,2471.195,13.28,0.045,166.0
2022-11-11T06:10:03,42.805,6.029,0.022,-0.046,-0.028,103.0,103.0,101.0,13.3,1505.2,323.3,-0.7,1.8,2471.181,13.28,0.05,154.4
2022-11-11T06:13:03,42.805,6.029,0.026,-0.055,-0.028,103.0,103.0,101.0,13.3,1505.2,334.3,-0.8,1.8,2471.202,13.28,0.06,154.7
2022-11-11T06:16:03,42.805,6.029,0.027,-0.033,-0.044,103.0,103.0,101.0,13.4,1505.2,324.0,-0.8,1.9,2471.202,13.28,0.042,140.7
2022-11-11T06:19:03,42.805,6.029,0.021,-0.036,-0.021,103.0,103.0,101.0,13.3,1505.2,332.0,-0.8,1.8,2471.168,13.28,0.041,149.7
2022-11-11T06:22:03,42.805,6.029,0.022,-0.041,-0.018,103.0,100.0,102.0,13.3,1505.2,325.7,-0.8,1.8,2471.194,13.28,0.046,151.8
2022-11-11T06:25:03,42.805,6.029,0.023,-0.05,-0.034,103.0,102.0,101.0,13.4,1505.2,330.0,-0.8,1.8,2471.195,13.28,0.055,155.3
2022-11-11T06:28:03,42.805,6.029,0.032,-0.032,-0.028,102.0,101.0,102.0,13.4,1505.2,332.5,-0.8,1.8,2471.179,13.28,0.045,135.0
2022-11-11T06:31:03,42.805,6.029,0.039,-0.045,-0.018,102.0,103.0,100.0,13.4,1505.2,324.8,-0.8,1.8,2471.204,13.28,0.059,139.1
2022-11-11T06:34:03,42.805,6.029,0.045,-0.05,-0.009,103.0,102.0,101.0,13.3,1505.2,323.3,-0.7,1.8,2471.231,13.28,0.067,138.0
2022-11-11T06:37:03,42.805,6.029,0.005,-0.067,-0.022,102.0,102.0,101.0,13.3,1505.2,328.1,-0.7,1.8,2471.205,13.28,0.067,175.7
2022-11-11T06:40:03,42.805,6.029,0.021,-0.051,-0.027,103.0,103.0,101.0,13.4,1505.2,323.7,-0.7,1.8,2471.201,13.28,0.055,157.6
2022-11-11T06:43:03,42.805,6.029,0.013,-0.059,-0.022,102.0,101.0,101.0,13.4,1505.2,324.0,-0.8,1.8,2471.205,13.28,0.06,167.6
2022-11-11T06:46:03,42.805,6.029,0.011,-0.062,-0.02,103.0,102.0,101.0,13.4,1505.2,322.9,-0.8,1.8,2471.213,13.28,0.062,169.9
2022-11-11T06:49:03,42.805,6.029,0.028,-0.044,-0.008,102.0,103.0,100.0,13.4,1505.2,322.5,-0.8,1.8,2471.217,13.28,0.052,147.5
2022-11-11T06:52:03,42.805,6.029,0.054,-0.062,-0.031,103.0,101.0,100.0,13.4,1505.2,330.5,-0.8,1.8,2471.22,13.29,0.082,138.9
2022-11-11T06:55:03,42.805,6.029,0.018,-0.047,-0.003,101.0,102.0,102.0,13.4,1505.2,332.7,-0.7,1.9,2471.162,13.28,0.05,159.0
2022-11-11T06:58:03,42.805,6.029,0.025,-0.049,0.027,102.0,101.0,101.0,13.4,1505.2,316.8,-0.7,1.8,2471.213,13.29,0.055,153.0
2022-11-11T07:04:03,42.805,6.029,0.032,-0.031,-0.029,99.0,102.0,102.0,13.3,1505.2,322.1,-0.7,1.9,2471.261,13.28,0.044,134.1
2022-11-11T07:07:03,42.805,6.029,0.008,-0.041,-0.024,102.0,101.0,101.0,13.3,1505.2,330.3,-0.7,1.8,2471.258,13.28,0.041,169.0
2022-11-11T07:10:03,42.805,6.029,0.011,-0.036,-0.017,101.0,102.0,100.0,13.4,1505.2,322.9,-0.7,1.8,2471.257,13.28,0.037,163.0
2022-11-11T07:13:03,42.805,6.029,0.005,-0.049,-0.003,101.0,102.0,101.0,13.4,1505.2,330.9,-0.8,1.8,2471.243,13.28,0.049,174.2
2022-11-11T07:16:03,42.805,6.029,0.012,-0.047,-0.012,103.0,103.0,101.0,13.3,1505.2,331.0,-0.8,1.8,2471.242,13.28,0.048,165.7
2022-11-11T07:19:03,42.805,6.029,0.027,-0.055,-0.025,102.0,102.0,101.0,13.3,1505.2,327.0,-0.8,1.8,2471.262,13.28,0.061,153.9
2022-11-11T07:22:03,42.805,6.029,0.029,-0.062,-0.038,101.0,103.0,100.0,13.4,1505.2,319.8,-0.8,1.8,2471.258,13.28,0.068,154.9
2022-11-11T07:25:03,42.805,6.029,0.007,-0.034,-0.018,103.0,102.0,102.0,13.3,1505.2,321.1,-0.8,1.8,2471.211,13.28,0.034,168.4
2022-11-11T07:28:03,42.805,6.029,0.01,-0.032,-0.025,102.0,102.0,101.0,13.3,1505.2,328.1,-0.8,1.8,2471.245,13.28,0.033,162.6
2022-11-11T07:31:03,42.805,6.029,0.007,-0.026,0.0,102.0,102.0,101.0,13.4,1505.2,321.0,-0.8,1.8,2471.246,13.28,0.026,164.9
2022-11-11T07:34:03,42.805,6.029,0.018,-0.05,-0.018,103.0,102.0,101.0,13.4,1505.2,323.0,-0.8,1.8,2471.255,13.28,0.053,160.2
2022-11-11T07:37:03,42.805,6.029,0.027,-0.034,-0.023,102.0,102.0,101.0,13.4,1505.2,319.9,-0.8,1.8,2471.249,13.28,0.043,141.5
2022-11-11T07:40:03,42.805,6.029,-0.001,-0.04,-0.035,102.0,103.0,101.0,13.3,1505.2,323.2,-0.7,1.8,2471.235,13.28,0.04,181.4
2022-11-11T07:43:03,42.805,6.029,0.022,-0.04,-0.027,102.0,102.0,101.0,13.4,1505.2,323.3,-0.8,1.8,2471.25,13.28,0.045,151.2
2022-11-11T07:46:03,42.805,6.029,0.0,-0.051,-0.015,101.0,102.0,101.0,13.4,1505.2,324.7,-0.7,1.8,2471.254,13.28,0.051,180.0
2022-11-11T07:49:03,42.805,6.029,0.002,-0.034,0.0,103.0,102.0,101.0,13.3,1505.2,322.9,-0.8,1.8,2471.284,13.28,0.034,176.6
2022-11-11T07:52:03,42.805,6.029,-0.006,-0.052,-0.017,101.0,102.0,101.0,13.4,1505.2,331.0,-0.8,1.8,2471.246,13.28,0.052,186.6
2022-11-11T07:55:03,42.805,6.029,0.026,-0.058,-0.012,102.0,104.0,100.0,13.4,1505.2,322.0,-0.8,1.8,2471.28,13.28,0.063,155.9
2022-11-11T07:58:03,42.805,6.029,0.013,-0.033,-0.026,102.0,102.0,101.0,13.4,1505.2,326.9,-0.8,1.8,2471.259,13.29,0.035,158.5
2022-11-11T08:04:03,42.805,6.029,0.029,-0.034,0.004,101.0,102.0,101.0,13.3,1505.2,321.4,-0.7,1.8,2471.291,13.28,0.044,139.5
2022-11-11T08:07:03,42.805,6.029,0.019,-0.08,-0.041,102.0,102.0,100.0,13.4,1505.2,331.0,-0.8,1.9,2471.294,13.28,0.082,166.6
2022-11-11T08:10:03,42.805,6.029,-0.014,-0.032,-0.024,102.0,102.0,101.0,13.4,1505.2,319.8,-0.8,1.8,2471.312,13.28,0.034,203.6
2022-11-11T08:13:03,42.805,6.029,0.013,-0.036,-0.011,101.0,102.0,100.0,13.4,1505.2,324.5,-0.8,1.8,2471.331,13.28,0.038,160.1
2022-11-11T08:16:03,42.805,6.029,-0.001,-0.035,-0.017,102.0,103.0,101.0,13.4,1505.2,329.8,-0.8,1.8,2471.31,13.28,0.035,181.6
2022-11-11T08:19:03,42.805,6.029,0.011,-0.053,-0.024,103.0,102.0,100.0,13.4,1505.2,327.0,-0.8,1.8,2471.297,13.28,0.054,168.3
2022-11-11T08:22:03,42.805,6.029,0.0,-0.051,-0.038,102.0,102.0,101.0,13.4,1505.2,318.2,-0.7,1.8,2471.302,13.28,0.051,180.0
2022-11-11T08:25:03,42.805,6.029,0.015,-0.044,-0.022,102.0,102.0,101.0,13.3,1505.2,318.4,-0.7,1.8,2471.27,13.28,0.046,161.2
2022-11-11T08:28:03,42.805,6.029,-0.01,-0.055,-0.006,102.0,102.0,100.0,13.4,1505.2,332.0,-0.8,1.9,2471.296,13.28,0.055,190.3
2022-11-11T08:31:03,42.805,6.029,0.013,-0.051,-0.013,101.0,101.0,101.0,13.4,1505.2,327.9,-0.8,1.8,2471.266,13.28,0.052,165.7
2022-11-11T08:34:03,42.805,6.029,0.03,-0.059,-0.028,102.0,101.0,100.0,13.4,1505.2,331.3,-0.7,1.8,2471.266,13.28,0.066,153.0
2022-11-11T08:37:03,42.805,6.029,0.023,-0.046,-0.029,104.0,100.0,101.0,13.4,1505.2,316.3,-0.8,1.8,2471.278,13.28,0.051,153.4
2022-11-11T08:40:03,42.805,6.029,-0.009,-0.039,0.0,102.0,102.0,101.0,13.3,1505.2,324.6,-0.8,1.9,2471.271,13.28,0.04,193.0
2022-11-11T08:43:03,42.805,6.029,0.011,-0.042,-0.018,102.0,101.0,102.0,13.4,1505.2,325.2,-0.8,1.8,2471.309,13.28,0.043,165.3
2022-11-11T08:46:03,42.805,6.029,0.0,-0.032,-0.043,102.0,103.0,100.0,13.4,1505.2,330.9,-0.8,1.8,2471.281,13.28,0.032,180.0
2022-11-11T08:49:03,42.805,6.029,0.008,-0.031,-0.001,101.0,101.0,101.0,13.4,1505.2,333.7,-0.8,1.8,2471.257,13.28,0.032,165.5
2022-11-11T08:52:03,42.805,6.029,0.022,-0.043,-0.004,102.0,102.0,101.0,13.3,1505.2,329.3,-0.8,1.8,2471.265,13.28,0.048,152.9
2022-11-11T08:55:03,42.805,6.029,0.012,-0.04,-0.002,102.0,102.0,101.0,13.4,1505.2,330.3,-0.8,1.8,2471.284,13.28,0.041,163.3
2022-11-11T08:58:03,42.805,6.029,-0.019,-0.064,-0.021,102.0,102.0,100.0,13.3,1505.2,328.7,-0.8,1.8,2471.234,13.28,0.066,196.5
2022-11-11T09:04:03,42.805,6.029,-0.003,-0.059,-0.032,102.0,101.0,101.0,13.4,1505.2,330.6,-0.8,1.8,2471.319,13.28,0.059,182.9
2022-11-11T09:07:03,42.805,6.029,0.018,-0.038,0.002,102.0,101.0,101.0,13.4,1505.2,321.1,-0.8,1.8,2471.295,13.28,0.042,154.7
2022-11-11T09:10:03,42.805,6.029,-0.014,-0.017,-0.015,101.0,101.0,101.0,13.4,1505.2,329.4,-0.8,1.8,2471.324,13.28,0.022,219.5
2022-11-11T09:13:03,42.805,6.029,0.022,-0.044,0.001,102.0,101.0,101.0,13.4,1505.2,317.6,-0.7,1.8,2471.32,13.28,0.049,153.4
2022-11-11T09:16:03,42.805,6.029,0.0,-0.039,-0.042,102.0,102.0,101.0,13.4,1505.2,329.7,-0.8,1.8,2471.321,13.28,0.039,180.0
2022-11-11T09:19:04,42.805,6.029,0.021,-0.051,-0.032,102.0,101.0,101.0,13.4,1505.2,328.2,-0.7,1.9,2471.318,13.28,0.055,157.6
2022-11-11T09:22:03,42.805,6.029,0.001,-0.049,-0.007,102.0,102.0,100.0,13.4,1505.2,327.3,-0.8,1.8,2471.323,13.28,0.049,178.8
2022-11-11T09:25:03,42.805,6.029,0.021,-0.039,0.007,102.0,101.0,101.0,13.3,1505.2,329.4,-0.8,1.8,2471.313,13.28,0.044,151.7
2022-11-11T09:28:03,42.805,6.029,0.007,-0.046,-0.018,101.0,102.0,101.0,13.4,1505.2,319.3,-0.7,1.8,2471.283,13.28,0.046,171.3
2022-11-11T09:31:03,42.805,6.029,0.01,-0.034,-0.029,100.0,103.0,101.0,13.3,1505.2,331.4,-0.7,1.8,2471.289,13.28,0.035,163.6
2022-11-11T09:34:03,42.805,6.029,0.035,-0.045,-0.006,101.0,102.0,101.0,13.3,1505.2,325.6,-0.8,1.8,2471.287,13.28,0.057,142.1
2022-11-11T09:37:03,42.805,6.029,0.001,-0.038,-0.008,101.0,103.0,100.0,13.3,1505.2,329.6,-0.8,1.8,2471.307,13.28,0.038,178.5
2022-11-11T09:40:03,42.805,6.029,0.018,-0.037,0.012,102.0,102.0,100.0,13.4,1505.2,326.5,-0.8,1.8,2471.269,13.28,0.041,154.1
2022-11-11T09:43:03,42.805,6.029,0.009,-0.032,-0.01,102.0,101.0,101.0,13.4,1505.2,323.6,-0.8,1.8,2471.278,13.28,0.033,164.3
2022-11-11T09:46:03,42.805,6.029,0.016,-0.057,-0.041,103.0,100.0,101.0,13.4,1505.2,323.6,-0.8,1.8,2471.243,13.29,0.059,164.3
2022-11-11T09:49:03,42.805,6.029,0.022,-0.041,-0.01,103.0,102.0,100.0,13.3,1505.2,332.1,-0.7,1.8,2471.257,13.28,0.046,151.8
2022-11-11T09:52:03,42.805,6.029,0.0,-0.051,-0.022,102.0,102.0,101.0,13.3,1505.2,321.0,-0.8,1.8,2471.258,13.28,0.051,180.0
2022-11-11T09:55:03,42.805,6.029,0.014,-0.041,-0.004,101.0,101.0,100.0,13.3,1505.2,325.4,-0.8,1.8,2471.263,13.28,0.043,161.1